Regional Weather Roundup
Issued by NWS

Home | Current Version | Previous Version | Text Only | Print | Product List | Glossary On
Versions: 1 2 3 4 5 6 7 8 9 10 11 12 13 14 15 16 17 18 19 20 21 22 23 24 25 26 27 28 29 30 31 32 33 34 35 36 37 38 39 40 41 42 43 44 45 46 47 48 49 50
000
ASUS44 KFWD 300715
RWRTX
NORTH TEXAS HOURLY WEATHER ROUNDUP
NATIONAL WEATHER SERVICE FORT WORTH TX
200 AM CDT MON MAY 30 2016

NOTE: "FAIR" INDICATES FEW OR NO CLOUDS BELOW 12,000 FEET WITH NO
SIGNIFICANT WEATHER AND/OR OBSTRUCTIONS TO VISIBILITY.

TXZ118-119-300800-
DALLAS/FORT WORTH METROPLEX

CITY           SKY/WX    TMP DP  RH WIND       PRES   REMARKS
DFW AIRPORT    LGT RAIN  72  63  73 NE3       30.01S
DALLAS LOVE    CLOUDY    73  64  73 E5        30.01S
FTW MEACHAM    RAIN      72  66  81 NE5       30.02R
DAL-EXECUTIVE  CLOUDY    71  64  78 E5        30.01S
FTW-ALLIANCE   TSTM      70  66  87 NW6       30.03R FOG
FTW-NAS-JRB    TSTM      73  67  81 NE5       30.03R
FTW-SPINKS     LGT RAIN  72  65  80 N6        30.04R
ARLINGTON      CLOUDY    75  64  68 NE5       30.02R
GRAND PRAIRIE  CLOUDY    72  61  68 CALM      30.02R
ADDISON        RAIN      72  66  82 E3        30.03S
MESQUITE       CLOUDY    71  69  94 CALM      30.01F
LANCASTER      CLOUDY    69  65  84 CALM      30.02S
$$

TXZ091>094-102>105-117-120-121-131>134-300800-
NORTH CENTRAL TEXAS

CITY           SKY/WX    TMP DP  RH WIND       PRES   REMARKS
SHRMAN/DENISON CLOUDY    68  59  73 E13       30.04S
GAINESVILLE    RAIN      69  66  89 CALM      30.08R
BOWIE          TSTM      65  63  93 CALM      30.10R
BRIDGEPORT     TSTM      67  67 100 N10       30.08S
DECATUR        RAIN      66  64  91 N6        30.07S
DENTON         LGT RAIN  69  67  93 W7        30.03R
MCKINNEY       CLOUDY    72  69  90 E3        30.02F
GREENVILLE     CLOUDY    72  64  78 E6        30.02F
ROCKWALL       CLOUDY    72  71  97 E3        30.01F
TERRELL        CLOUDY    73  71  93 CALM      30.02F
WAXAHACHIE     CLOUDY    73  68  85 E3        30.02S
CLEBURNE       RAIN      77  73  88 S12G21    30.01R
GRANBURY       TSTM      66  63  90 W26       30.07R VSB 1
$$

TXZ083>090-098>101-113>116-127>130-139>142-154-155-300800-
WESTERN NORTH TEXAS

CITY           SKY/WX    TMP DP  RH WIND       PRES   REMARKS
WICHITA FALLS  RAIN      65  63  93 S13       30.08R FOG
WF-KICKAPOO    TSTM      67  64  90 SE10G20   30.11R
VERNON         CLOUDY    65  57  74 S13       29.96F
ABILENE        CLOUDY    62  62 100 N8        30.03F
ABILENE-DYESS  CLOUDY    62  58  87 N8        30.03F
BRECKENRIDGE   TSTM      67  67  97 N6        30.05F
GRAHAM         RAIN      66  66 100 E9G16     30.03F
MINERAL WELLS  TSTM      67  66  97 N20       30.03R VSB 1
STEPHENVILLE     N/A     67  63  86 SW3G25    30.08F
COMANCHE       TSTM      66  64  93 NW28G39   30.11R
BROWNWOOD      RAIN      66  64  94 W7        30.07S
COLEMAN        TSTM      66  65  96 N7        30.02F
$$

TXZ143>147-156>162-174-175-300800-
CENTRAL TEXAS

CITY           SKY/WX    TMP DP  RH WIND       PRES   REMARKS
WACO           CLOUDY    76  70  82 S9        30.02S
WACO-MCGREGOR  CLOUDY    75  71  87 S9        30.01F
HILLSBORO      CLOUDY    75  70  84 S15       30.00F
CORSICANA      CLOUDY    76  70  82 SE7       30.02S
MEXIA          CLOUDY    73  72  95 SE5       30.01F
HEARNE         PTCLDY    73  71  93 CALM      30.02F
CAMERON        CLOUDY    74  72  91 S7        30.01F
TEMPLE         CLOUDY    74  70  87 S13       30.02F
KILLEEN        CLOUDY    72  70  93 S7        30.03R
KILLEEN-SKYLRK CLOUDY    74  70  87 S13       30.02F
FORT HOOD      CLOUDY    72  70  93 S12       30.01F
GATESVILLE     CLOUDY    75  70  83 S9        30.04F
HAMILTON       CLOUDY    74  70  85 S10G17    30.04S
LAMPASAS       CLOUDY    74  71  92 S5        30.04R
$$

TXZ095>097-106>112-122>126-135>138-148>153-164>167-300800-
EAST TEXAS

CITY           SKY/WX    TMP DP  RH WIND       PRES   REMARKS
PARIS          CLOUDY    70  55  60 E12       30.03F
SULPHUR SPRNGS CLOUDY    69  66  88 E10       30.05F
MOUNT PLEASANT MOCLDY    70  63  78 E3        30.06F
GILMER         CLOUDY    71  65  81 NE5       30.05S
MINEOLA        CLOUDY    73  70  88 SE3       30.04F
TYLER          CLOUDY    76  67  73 SE5       30.03F
LONGVIEW       CLOUDY    72  67  84 CALM      30.03F
MARSHALL       CLOUDY    70  64  80 CALM      30.07R
ATHENS         CLOUDY    73  72  94 SE3       30.01S
PALESTINE      CLOUDY    74  71  89 SE3       30.04S
JACKSONVILLE   MOCLDY    73  70  89 S5        30.06F
HENDERSON      CLOUDY    70  68  93 CALM      30.04F
CENTER         FAIR      73  71  96 CALM      30.03S
NACOGDOCHES    CLOUDY    70  66  88 CALM      30.03S
LUFKIN         CLOUDY    71  69  93 CALM      30.02F
$$

SUPPLEMENTAL OBSERVATIONS (CENTRAL)

CITY           SKY/WX    TMP DP  RH WIND       PRES   REMARKS
LAKE TEXOMA      N/A     70  64  83 E7          N/A
LAKE LIMESTONE   N/A     73  68  83 S3          N/A
$$

SUPPLEMENTAL OBSERVATIONS (WEST)

CITY           SKY/WX    TMP DP  RH WIND       PRES   REMARKS
MILLERS CREEK    N/A     64  59  82 E10G31      N/A
GRANBURY         N/A     64  61  88 W26G45      N/A
COMANCHE         N/A     63  59  88 N3G45       N/A
HAMBY            N/A     63  59  88 NE8G25      N/A
$$

SUPPLEMENTAL OBSERVATIONS (EAST)

CITY           SKY/WX    TMP DP  RH WIND       PRES   REMARKS
CLARKSVILLE      N/A     68  64  88 SE3         N/A
TEXARKANA        N/A     66  63  88 S1          N/A
LUFKIN           N/A     72  70  94 MISG        N/A
N SABINE NF      N/A     72  70  94 MISG        N/A
S SABINE NF      N/A     70  68  94 CALM        N/A
$$

SUPPLEMENTAL OBSERVATIONS ARE A COLLECTION OF AUTOMATED INSTRUMENTS
THAT ARE MAINTAINED BY A VARIETY OF FEDERAL AND STATE AGENCIES.
CERTAIN ELEMENTS...SUCH AS HUMIDITY VALUES AND SUSTAINED WIND
SPEEDS...MAY BE APPROXIMATED.




USA.gov is the U.S. government's official web portal to all federal, state and local government web resources and services.